RH
50 48 49 51 52 52 56 60 68 71 65 65 66 67 71 86 95 98 98 94 91 97 94 89 78 73 77 77 75 74 76 74 61 67 65 68 71 67 68 68 69 71 72
56 58 61 69 68 66 67 73 81 77 80 82 80 86 88 88 93 96 95 88 91 91 84 78 70 70 71 74 65 60 70 72 63 60 66 72 69 65 63 67 69 66 61
55 58 55 50 52 55 58 68 79 77 76 83 86 90 80 75 74 80 81 80 78 81 78 72 68 66 64 58 68 65 66 62 65 68 73 72 70 67 67 62 52 49 48
37 39 40 41 42 45 52 58 63 77 75 74 85 88 88 77 72 73 78 80 83 83 72 67 67 62 60 61 62 63 65 65 71 72 77 73 72 74 61 49 46 44 42
35 35 32 30 32 36 41 49 58 72 76 77 75 82 82 83 85 79 72 77 82 78 72 66 60 54 55 57 61 62 66 73 78 78 76 76 77 59 50 47 42 38 41
37 37 35 34 34 33 40 50 57 65 69 72 73 71 79 80 82 82 80 81 76 72 69 60 51 53 53 58 64 64 74 78 76 83 82 69 57 53 47 44 43 44 43
40 35 36 37 37 35 39 50 58 62 69 73 72 73 80 82 79 77 80 76 72 67 58 52 48 56 59 61 66 71 76 78 86 87 64 58 53 48 45 45 48 47 45
45 42 40 39 38 36 40 50 59 68 74 78 75 74 79 82 84 84 72 69 63 62 56 54 56 59 62 67 70 72 76 87 77 63 58 51 49 51 51 50 52 48 47
49 53 48 43 41 40 46 52 61 70 71 75 77 77 75 78 81 69 66 65 57 61 61 59 61 64 67 70 73 80 79 64 60 56 54 54 56 56 58 55 53 52 50
55 55 55 50 45 48 51 55 57 61 63 67 72 78 77 78 68 68 66 63 65 68 63 64 66 68 70 74 83 70 61 58 56 55 56 59 57 56 57 56 58 60 59
62 60 59 59 53 51 49 57 58 59 64 68 73 75 71 66 69 69 67 69 72 70 67 67 69 72 75 72 65 60 55 58 58 58 60 59 59 58 59 62 64 64 61
65 65 67 67 58 54 51 55 62 68 70 70 66 62 62 66 68 69 73 76 77 75 73 73 74 71 68 65 58 57 63 61 60 66 65 62 65 65 65 67 66 64 62
70 71 72 74 64 62 62 63 69 68 65 62 59 60 63 66 72 77 78 78 77 75 72 72 73 72 66 59 62 63 71 77 72 66 65 70 69 72 74 68 66 62 60
79 78 76 67 64 65 68 70 68 64 64 65 65 67 71 74 76 78 79 79 77 77 77 76 70 66 65 70 78 82 80 75 69 72 76 75 80 76 72 68 65 62 53
74 69 67 67 67 67 67 66 67 69 71 73 75 77 78 79 81 81 81 83 84 83 79 74 69 75 86 82 79 78 77 74 80 82 87 83 78 75 69 67 63 54 39
72 71 72 74 74 76 75 76 80 83 84 85 87 89 91 92 92 92 92 90 87 80 77 76 80 87 87 88 84 86 90 93 92 90 87 80 77 71 68 63 52 36 22
82 81 84 84 85 86 88 91 93 94 94 93 93 93 94 95 95 95 89 84 85 85 92 96 97 97 97 97 97 97 97 95 92 89 82 76 72 69 60 44 30 23 21
92 93 92 94 95 96 96 97 97 96 96 96 96 96 93 91 92 95 96 96 97 97 97 97 97 97 97 98 98 98 97 93 86 79 75 71 62 49 36 29 26 25 26
98 98 97 97 97 97 96 96 96 96 97 96 96 96 96 96 96 96 96 97 96 97 97 97 98 98 98 98 98 95 89 83 75 67 58 48 38 33 29 28 28 29 31
97 97 97 96 95 96 95 96 96 96 95 95 96 96 96 97 97 97 97 97 98 98 98 98 98 98 98 96 91 81 71 61 50 40 34 33 33 33 33 33 35 34 35
96 97 96 97 96 96 96 96 96 96 97 96 96 96 96 98 98 98 98 98 98 98 98 97 93 82 72 65 57 49 40 35 32 31 32 34 35 37 39 40 41 39 41
96 97 96 96 96 96 97 97 97 97 96 96 98 98 98 98 98 98 97 92 82 71 62 57 52 46 39 35 34 35 35 35 35 36 38 40 42 44 45 45 46 46 45
96 96 89 90 96 97 97 97 98 98 98 98 97 94 87 75 65 58 51 45 39 34 31 30 30 32 34 35 37 37 36 37 39 41 43 46 48 50 51 52 51 52 53
89 90 94 97 97 96 94 90 82 73 64 55 47 39 31 26 24 24 25 26 27 28 29 31 32 33 34 36 38 39 41 42 43 46 49 50 53 56 56 58 61 61 62
89 85 79 71 62 54 46 39 31 24 21 20 20 21 21 23 25 26 27 28 30 31 32 34 34 36 37 39 41 44 46 47 49 51 54 57 59 63 66 68 70 70 69
46 38 29 21 16 15 16 16 17 18 19 19 20 22 23 25 26 27 28 29 31 32 34 36 38 40 43 45 47 48 50 52 55 59 61 65 70 73 77 79 77 73 71